Wind_Speed
38 39 40 39 39 39 40 41 41 40 40 40 40 40 38 38 38 36 36 36 35 34 34 33 33 32 32 32 32 31 31 31 31 31 31 32 32 32 32 32 32 32 32 32
38 38 38 39 39 39 40 40 40 40 40 41 41 40 39 38 37 37 36 36 35 35 34 34 33 32 32 31 31 31 31 31 31 31 32 32 33 33 33 33 33 33 33 34
37 37 38 39 39 39 39 39 39 40 40 41 41 41 39 38 38 38 37 36 36 35 35 34 34 33 32 32 31 31 31 31 31 31 32 33 33 33 33 34 34 34 35 35
36 37 38 39 39 39 38 38 38 39 41 41 41 41 40 39 38 38 37 36 36 36 35 35 34 33 32 32 32 31 31 31 31 31 32 32 33 33 33 34 35 35 36 36
35 36 38 39 38 38 37 36 37 38 40 41 41 42 40 39 38 37 37 36 36 36 35 34 34 33 32 31 31 31 31 31 31 32 32 33 33 33 34 35 35 36 37 37
34 35 37 38 38 38 36 35 36 37 39 41 40 41 40 38 37 37 37 36 36 36 35 34 34 34 33 32 32 32 31 31 32 32 33 33 33 34 35 36 36 37 37 38
34 35 36 38 38 38 37 36 36 37 39 41 39 41 39 37 37 36 36 36 36 36 36 35 35 34 34 33 33 33 32 32 32 33 33 34 34 35 35 36 37 37 37 38
33 34 35 37 38 38 37 37 37 37 38 38 38 39 38 36 36 36 36 36 36 36 36 36 35 34 34 34 34 33 33 33 33 33 34 34 35 36 36 36 37 37 38 39
32 33 34 35 36 36 37 37 37 37 38 37 38 38 37 35 35 35 35 35 35 35 35 35 35 35 34 34 34 34 34 34 34 34 35 35 36 36 36 36 37 37 38 39
31 32 32 33 34 35 36 35 36 37 37 37 37 37 37 35 33 34 34 34 34 35 35 35 35 35 34 34 35 35 35 35 35 35 35 36 36 36 37 37 37 38 38 39
29 30 30 31 33 34 36 36 36 36 36 36 36 36 35 34 33 33 33 33 33 33 34 34 34 34 34 34 34 34 35 35 35 35 36 36 36 37 37 37 38 38 38 39
29 29 29 29 30 32 34 35 36 37 37 36 36 36 33 33 33 33 33 33 33 33 33 33 34 34 34 34 34 34 35 35 35 35 36 36 37 37 37 38 38 39 39 40
28 29 30 30 31 32 33 34 35 36 36 36 35 35 34 33 33 33 33 33 33 33 33 33 33 34 34 33 34 34 34 34 35 35 36 36 37 37 38 38 39 39 40 40
28 30 31 30 30 31 32 33 35 37 37 35 34 33 33 33 32 32 33 33 32 33 33 33 33 33 34 33 33 33 34 34 34 35 35 36 36 37 37 38 39 39 39 39
28 29 29 30 30 30 31 32 34 35 36 36 33 33 32 33 32 32 32 32 32 32 32 33 32 32 32 33 33 33 32 33 34 34 35 35 36 36 37 37 38 38 38 39
25 27 27 28 28 30 31 31 32 34 35 35 34 33 32 32 32 32 32 32 32 32 31 32 32 32 32 32 32 32 32 33 34 35 35 35 35 35 36 36 36 37 37 37
24 24 25 26 27 28 29 29 31 33 35 35 34 32 32 32 32 32 32 32 32 32 32 31 32 32 32 31 31 31 32 32 33 34 35 35 34 35 35 35 35 36 36 37
24 24 24 25 26 27 27 27 28 30 32 34 34 33 32 32 32 32 32 31 31 32 32 33 32 32 31 31 31 31 31 32 32 33 34 34 34 34 35 35 35 35 37 38
25 25 25 25 25 26 27 26 26 28 30 32 32 32 32 32 32 32 33 32 31 32 33 34 33 32 32 31 30 30 31 31 31 32 33 33 34 34 34 34 35 35 36 37
26 25 26 26 26 26 25 25 25 27 28 29 31 31 31 32 32 31 33 33 32 32 34 35 34 33 32 32 31 30 31 31 31 31 32 33 34 34 34 35 35 35 36 37
25 26 26 26 27 26 25 25 26 27 27 27 29 30 30 31 31 32 33 33 33 33 33 34 34 34 33 32 32 32 31 31 31 32 32 33 34 34 35 35 36 36 37 38
23 24 25 25 25 24 24 25 26 26 27 27 28 29 30 31 31 32 32 33 33 33 33 33 34 34 34 33 33 33 33 32 32 32 33 33 33 34 35 35 36 36 36 37
21 22 22 22 22 21 23 24 24 25 26 26 27 28 29 30 31 31 31 32 33 33 33 33 33 33 34 34 33 33 33 33 33 33 33 32 33 33 33 34 35 35 35 35
19 20 20 21 22 23 23 24 23 23 24 25 25 26 27 28 28 28 29 30 31 32 32 32 32 33 33 33 33 33 33 33 33 33 33 33 32 32 33 33 34 33 33 33
19 19 20 21 21 22 23 23 23 22 23 23 24 24 25 25 26 27 27 28 29 30 30 31 32 32 32 32 33 33 33 33 33 33 33 33 33 32 32 32 31 31 31 31
19 19 19 19 19 20 20 21 22 22 22 22 23 23 24 24 25 25 26 27 28 28 28 29 30 31 31 32 32 32 33 33 33 33 33 33 32 32 31 30 29 29 29 29
Wind_Direction
233 233 231 231 233 234 235 235 235 235 236 236 235 235 234 235 235 235 236 237 238 238 239 240 241 243 245 246 248 248 249 251 253 255 256 257 257 259 260 261 263 265 268 270
232 232 232 231 231 233 234 235 235 235 236 237 236 235 234 234 235 235 236 237 237 238 239 240 241 243 245 246 247 249 250 252 253 255 256 257 257 259 260 262 264 267 269 271
232 231 231 230 231 232 234 235 235 236 236 237 237 236 234 234 235 235 236 236 237 238 239 240 241 242 244 246 248 249 251 252 253 255 256 257 258 261 262 264 266 268 270 272
230 229 230 230 230 232 233 234 236 236 236 237 237 238 234 234 235 236 236 237 237 238 239 240 241 242 244 246 247 249 251 252 253 254 255 257 260 262 264 266 268 270 272 273
229 229 229 229 229 231 233 234 236 236 238 238 237 239 235 234 235 236 237 237 237 238 239 239 240 241 242 244 247 249 251 253 254 255 256 258 260 263 265 267 269 272 273 275
228 229 230 229 228 230 232 233 235 236 237 238 237 240 237 236 236 236 236 237 237 238 238 238 239 240 241 244 247 249 251 253 255 256 257 259 261 264 267 269 271 273 274 276
228 229 229 229 229 229 231 232 233 235 237 238 237 239 239 237 237 237 236 237 237 238 238 237 238 241 243 245 247 249 251 254 256 258 259 261 263 266 268 271 272 274 275 277
231 228 228 228 230 230 230 231 233 236 238 239 238 239 238 239 237 237 237 237 237 238 238 239 240 242 244 245 247 249 252 254 257 259 260 263 265 267 269 271 272 274 276 277
232 230 228 228 229 230 229 229 231 235 238 240 239 238 238 238 238 237 237 236 236 237 238 240 241 243 244 246 248 250 252 255 257 259 261 264 266 267 268 270 272 274 277 278
233 231 228 227 227 227 228 228 229 232 236 240 240 240 240 238 238 238 237 237 237 237 238 240 242 244 245 247 249 251 253 256 258 260 261 263 265 266 268 270 272 275 277 279
233 232 228 226 226 225 226 225 228 230 234 238 240 241 241 241 239 239 239 238 238 239 239 241 243 245 246 247 249 252 254 256 258 260 261 263 264 266 268 270 272 274 277 279
233 232 229 226 226 226 227 227 229 232 233 236 240 241 240 241 240 240 239 238 238 239 240 242 243 245 246 248 250 252 253 255 257 259 261 263 265 267 269 270 272 275 278 279
232 233 232 228 226 226 228 229 230 230 233 235 238 240 239 241 241 240 239 239 238 239 241 242 244 245 246 248 250 252 253 255 257 259 262 264 265 267 269 271 273 276 277 278
231 233 234 235 233 232 231 230 231 232 234 235 237 240 240 241 239 239 239 239 240 240 241 242 244 245 246 247 249 252 254 256 258 260 262 264 266 268 269 272 275 276 277 279
233 234 234 235 235 235 234 233 232 233 235 238 238 239 239 240 239 237 236 237 238 239 240 241 243 245 247 248 250 252 255 257 259 261 263 265 267 268 271 273 275 276 278 280
233 233 233 233 234 236 235 234 234 233 234 237 238 238 238 238 239 238 238 237 237 237 238 239 242 245 247 249 250 252 255 257 259 261 263 266 268 269 272 274 275 277 279 280
233 234 233 232 234 235 235 234 235 235 236 238 238 238 236 237 239 239 239 239 238 238 238 239 241 244 247 249 251 254 256 258 260 262 264 266 268 271 274 274 276 277 279 281
233 234 235 235 234 236 234 235 236 237 238 239 238 236 235 236 238 239 239 240 241 239 239 240 241 244 246 249 251 254 257 260 262 263 265 267 269 272 274 275 277 279 280 282
231 232 234 237 239 238 235 236 236 236 235 236 236 236 237 237 238 239 240 240 241 241 240 241 242 245 247 249 252 255 258 260 262 265 266 268 270 272 273 275 277 278 281 283
232 233 236 238 241 241 238 239 237 237 236 235 237 237 238 238 239 240 241 241 242 244 243 243 244 246 248 250 253 257 259 260 263 266 268 270 271 272 273 275 276 278 281 284
234 234 236 239 242 243 243 242 240 239 238 238 240 240 240 241 241 241 242 243 244 245 246 245 247 248 249 252 255 258 260 261 264 267 269 270 272 273 274 275 277 279 282 284
236 236 237 238 241 243 244 245 244 242 241 240 241 242 242 242 242 243 244 244 245 246 246 247 247 249 251 253 256 259 261 263 266 268 270 272 272 273 274 276 277 279 282 285
236 237 238 239 242 243 244 246 246 244 243 243 244 244 244 243 244 245 246 247 247 247 247 247 248 249 251 253 256 260 262 265 266 268 270 272 272 273 275 277 278 281 283 286
236 238 240 241 241 242 244 245 245 246 244 243 244 244 244 245 247 247 247 247 248 248 247 248 248 250 252 254 256 259 262 265 266 267 270 271 273 274 276 278 280 282 284 286
236 239 240 242 243 242 243 245 246 246 245 244 244 244 245 245 246 247 247 247 247 247 248 249 249 250 252 254 257 260 263 265 266 267 270 271 272 274 276 278 280 282 284 287
235 239 240 240 241 241 241 242 244 246 246 245 246 246 246 246 245 246 246 247 247 248 249 250 251 252 254 256 257 259 262 263 265 267 268 269 270 272 276 279 281 284 286 287
Height
5643 5648 5652 5658 5662 5666 5669 5673 5677 5683 5686 5689 5693 5698 5703 5706 5710 5715 5719 5722 5725 5729 5732 5735 5738 5740 5743 5745 5747 5749 5751 5752 5754 5755 5757 5758 5759 5759 5760 5760 5761 5761 5761 5760
5635 5639 5645 5648 5652 5656 5660 5664 5669 5674 5677 5680 5684 5689 5694 5698 5702 5707 5710 5714 5718 5721 5724 5728 5730 5733 5735 5738 5740 5742 5743 5745 5747 5748 5749 5750 5751 5751 5752 5753 5753 5753 5752 5752
5626 5632 5635 5638 5643 5647 5651 5656 5661 5665 5668 5671 5675 5680 5686 5690 5694 5698 5702 5706 5710 5713 5716 5720 5723 5725 5728 5731 5733 5734 5736 5738 5739 5740 5741 5742 5743 5744 5744 5745 5745 5744 5744 5743
5617 5622 5626 5630 5634 5638 5643 5648 5652 5655 5659 5662 5667 5670 5678 5682 5686 5690 5694 5698 5702 5705 5708 5712 5715 5718 5720 5723 5725 5727 5728 5730 5731 5732 5733 5734 5735 5736 5736 5736 5736 5735 5735 5734
5609 5613 5617 5621 5627 5631 5635 5639 5643 5646 5650 5653 5658 5661 5669 5674 5678 5682 5686 5690 5693 5697 5700 5704 5707 5710 5712 5715 5717 5719 5721 5722 5723 5724 5725 5726 5727 5728 5728 5727 5727 5726 5725 5724
5601 5605 5608 5614 5618 5622 5627 5631 5634 5637 5640 5644 5651 5653 5659 5665 5670 5674 5678 5681 5685 5688 5692 5695 5698 5701 5704 5707 5709 5711 5713 5714 5715 5716 5717 5718 5719 5719 5719 5718 5718 5717 5715 5714
5593 5596 5600 5604 5609 5613 5618 5623 5626 5628 5630 5636 5642 5644 5651 5657 5661 5665 5669 5673 5676 5679 5683 5687 5690 5694 5697 5699 5701 5703 5705 5706 5707 5708 5709 5709 5710 5710 5709 5709 5708 5707 5705 5704
5585 5589 5593 5596 5600 5605 5610 5614 5619 5621 5624 5629 5633 5636 5643 5648 5652 5656 5660 5664 5667 5671 5675 5678 5682 5685 5688 5690 5693 5695 5696 5698 5699 5699 5700 5700 5700 5700 5700 5699 5698 5696 5695 5693
5576 5582 5586 5589 5593 5597 5601 5605 5610 5614 5616 5620 5624 5629 5635 5639 5643 5647 5651 5655 5659 5663 5666 5670 5673 5676 5679 5682 5684 5686 5688 5689 5690 5690 5691 5691 5690 5690 5689 5689 5688 5686 5684 5683
5569 5573 5578 5582 5586 5589 5594 5598 5602 5605 5608 5612 5616 5621 5626 5631 5635 5639 5643 5647 5651 5654 5658 5661 5664 5667 5670 5673 5675 5677 5678 5680 5680 5681 5681 5681 5681 5680 5680 5679 5678 5676 5674 5672
5563 5566 5570 5574 5577 5582 5587 5591 5594 5598 5601 5605 5608 5615 5619 5623 5627 5631 5635 5638 5642 5646 5649 5653 5655 5658 5661 5663 5666 5668 5669 5670 5671 5671 5671 5671 5671 5671 5670 5669 5668 5666 5665 5663
5556 5559 5563 5567 5571 5575 5579 5583 5587 5591 5594 5597 5601 5608 5611 5615 5619 5622 5626 5630 5633 5637 5640 5643 5646 5649 5652 5654 5656 5658 5659 5660 5661 5661 5662 5662 5661 5661 5660 5659 5658 5657 5655 5653
5549 5553 5556 5560 5566 5568 5571 5575 5579 5583 5586 5589 5593 5601 5603 5607 5610 5614 5617 5621 5625 5628 5632 5635 5638 5640 5643 5645 5647 5649 5650 5651 5651 5652 5652 5652 5652 5651 5650 5649 5648 5646 5645 5643
5543 5547 5551 5554 5558 5561 5565 5568 5571 5575 5578 5582 5586 5592 5596 5598 5602 5606 5609 5613 5616 5619 5623 5626 5629 5631 5634 5636 5638 5639 5640 5641 5642 5642 5642 5642 5642 5642 5641 5639 5638 5636 5635 5633
5537 5540 5544 5548 5551 5554 5557 5561 5564 5567 5571 5575 5580 5583 5587 5590 5593 5597 5600 5604 5608 5611 5614 5617 5620 5622 5624 5626 5628 5630 5631 5632 5632 5633 5633 5633 5632 5632 5631 5629 5628 5626 5625 5623
5531 5534 5537 5541 5544 5546 5549 5553 5556 5560 5563 5567 5571 5576 5579 5581 5585 5588 5592 5595 5599 5602 5605 5608 5611 5613 5615 5617 5619 5621 5622 5623 5623 5623 5624 5623 5623 5622 5621 5620 5618 5617 5615 5613
5526 5528 5531 5534 5537 5539 5543 5547 5549 5553 5556 5560 5563 5569 5571 5574 5577 5580 5584 5587 5590 5593 5597 5599 5602 5604 5607 5608 5610 5612 5613 5613 5614 5614 5614 5614 5613 5613 5612 5610 5609 5608 5606 5604
5520 5522 5525 5527 5531 5533 5539 5540 5542 5545 5549 5552 5555 5559 5562 5565 5568 5572 5575 5579 5582 5585 5588 5591 5593 5596 5598 5600 5601 5602 5603 5604 5605 5605 5605 5605 5604 5603 5602 5601 5600 5598 5596 5594
5515 5517 5519 5521 5523 5527 5531 5534 5536 5538 5541 5544 5548 5551 5555 5557 5560 5564 5567 5570 5573 5576 5579 5582 5584 5587 5589 5591 5592 5594 5595 5595 5596 5596 5595 5595 5594 5594 5593 5591 5590 5588 5587 5585
5509 5511 5514 5516 5518 5521 5526 5528 5529 5532 5534 5538 5540 5544 5547 5550 5553 5557 5559 5562 5565 5567 5570 5573 5575 5578 5580 5582 5583 5585 5586 5586 5587 5587 5586 5586 5585 5584 5583 5582 5581 5579 5577 5575
5503 5505 5508 5510 5512 5515 5519 5520 5523 5527 5530 5531 5533 5536 5539 5542 5546 5549 5550 5553 5556 5558 5561 5564 5566 5569 5571 5573 5574 5576 5576 5577 5577 5577 5577 5576 5576 5575 5574 5573 5571 5569 5567 5565
5498 5500 5502 5504 5506 5512 5512 5514 5517 5519 5521 5523 5526 5528 5531 5534 5537 5539 5542 5544 5547 5550 5552 5555 5557 5559 5561 5563 5565 5566 5567 5568 5568 5568 5568 5567 5566 5565 5564 5563 5562 5560 5557 5555
5493 5495 5497 5499 5503 5505 5506 5507 5509 5511 5514 5516 5518 5521 5524 5526 5528 5531 5534 5536 5538 5541 5543 5546 5548 5550 5552 5554 5555 5557 5557 5558 5558 5558 5558 5558 5557 5556 5555 5554 5552 5550 5548 5546
5487 5489 5491 5493 5496 5498 5499 5501 5503 5505 5507 5509 5511 5513 5516 5518 5521 5523 5525 5527 5529 5532 5534 5536 5539 5541 5543 5544 5546 5547 5548 5548 5549 5549 5549 5548 5548 5547 5546 5544 5543 5541 5539 5537
5482 5484 5485 5488 5490 5492 5493 5495 5497 5499 5501 5503 5505 5507 5509 5511 5513 5515 5517 5519 5521 5523 5525 5527 5529 5531 5533 5534 5535 5537 5538 5539 5539 5539 5539 5539 5539 5538 5537 5536 5534 5532 5530 5528
5477 5479 5481 5483 5484 5486 5487 5489 5491 5493 5495 5496 5498 5500 5502 5504 5506 5508 5509 5511 5513 5515 5517 5518 5520 5522 5523 5525 5526 5527 5528 5529 5530 5530 5530 5530 5530 5529 5528 5527 5526 5524 5522 5520